[[{"header":{"parameterUnit":"m.s-1","parameterCategory":1,"la1":30.2991,"la2":30.254,"lo1":-89.0895,"lo2":-89.0444,"dx":0.0017,"dy":0.0017,"nx":28,"ny":28,"refTime":"2023-01-22T03:00:00:Z","depth":0,"parameterNumber":2,"parameterNumberName":"U-component_of_WINDS"},"data":[0,0,0,0,0,0,0,0,0,0,0,0,0,0,0,0,0,0,0,0,0,0,0,0,0,0,0,0,0,0,0,0,0,0,0,0,0,0,0,0,0,0,0,0,0,0,0,0,0,0,0,0,0,0,0,0,0,0,4.0098,4.0099,0,4.018,4.0181,4.0182,4.0096,4.0093,4.0089,4.0086,4.0175,4.0181,4.0186,0,0,0,0,0,0,0,0,0,0,0,0,0,3.9871,3.9876,4.0098,4.0099,4.01,4.018,4.0181,4.0182,4.0097,4.0093,4.0089,4.0085,4.0173,4.018,4.0186,0,0,0,0,0,0,0,0,0,0,0,0,0,3.9963,3.9877,4.0098,4.0067,4.0065,4.018,4.0181,4.0182,4.0097,4.0092,4.0087,4.0083,4.0171,4.0179,4.0187,4.0338,0,0,4.0212,4.0216,0,0,0,0,0,0,0,0,3.9958,3.9972,4.007,4.0069,4.0067,4.0122,4.0134,4.0235,4.0099,4.0085,4.0086,4.008,4.0162,4.0171,4.0197,4.0342,4.0346,4.0213,4.0218,4.0222,4.0224,0,0,0,0,0,0,0,3.9952,3.9968,4.013,4.0072,4.007,4.005,4.0058,4.0153,4.0151,4.0086,4.008,4.0091,4.016,4.019,4.0199,4.0348,4.0213,4.022,4.0225,4.0229,4.0622,4.0627,0,0,0,0,0,0,3.9948,3.9963,4.0128,4.0133,3.9999,4.0058,4.0067,4.011,4.015,4.0151,4.0095,4.0086,4.0178,4.0189,4.0202,4.0381,4.0222,4.0229,4.0234,4.0616,4.0623,4.0629,0,0,0,0,0,0,3.9944,3.9964,4.0124,4.0046,4.0065,4.0068,4.0117,4.0114,4.0143,4.0156,4.0156,4.0125,4.0174,4.019,4.0305,4.0383,4.0233,4.0241,4.061,4.0618,4.0626,4.0741,0,0,0,0,0,0,3.9938,3.9963,4.0019,4.0048,4.007,4.0225,4.0121,4.0119,4.0157,4.0147,4.0184,4.0186,4.0172,4.0293,4.0313,4.0391,4.0247,4.0603,4.0614,4.0623,4.073,4.0752,4.0771,0,0,0,0,0,3.993,4.0049,4.0022,4.0043,4.014,4.023,4.0242,4.0222,4.0164,4.0221,4.0229,4.0184,4.0371,4.0305,4.0327,4.0409,4.0598,4.061,4.0623,4.0721,4.0748,4.0771,0,0,0,0,0,0,4.003,4.0052,4.0023,4.0154,4.0191,4.0215,4.0286,4.0251,4.0306,4.0295,4.0269,4.0279,4.04,4.0416,4.0343,4.0558,4.0475,4.0493,4.0543,4.0568,4.0588,4.0582,4.0254,0,0,0,0,0,4.0068,4.0137,4.0153,4.0268,4.0288,4.0284,4.0323,4.0304,4.0342,4.0357,4.0374,4.0413,4.048,4.0525,4.0588,4.0733,4.074,4.08,4.082,4.0837,4.0852,4.093,4.0957,4.067,4.067,4.0669,0,0,4.0146,4.0166,4.0212,4.0289,4.0315,4.0389,4.0298,4.038,4.0435,4.037,4.0478,4.0493,4.0535,4.0665,4.0724,4.0683,4.0934,4.0853,4.0866,4.0872,4.0946,4.0973,4.0997,4.0678,4.0676,4.0675,0,0,4.0325,4.0348,4.0446,4.0474,4.0514,4.0511,4.0534,4.0564,4.0571,4.0679,4.0632,4.0698,4.0815,4.0847,4.0878,4.1072,4.1033,4.1093,4.1199,4.1276,4.1299,4.1319,4.1388,4.1413,4.1108,4.1109,4.1109,0,4.0418,4.0526,4.0501,4.0587,4.0623,4.0566,4.0666,4.0694,4.0754,4.078,4.0733,4.0878,4.0903,4.104,4.1087,4.1115,4.1142,4.1088,4.1297,4.1317,4.1335,4.1401,4.1427,4.1116,4.1115,4.1114,4.1114,0,4.0638,4.0714,4.0789,4.0845,4.089,4.0982,4.0973,4.1021,4.1,4.1002,4.1115,4.1142,4.1209,4.1241,4.1221,4.1376,4.1349,4.13,4.1216,4.137,4.1431,4.1456,4.1126,4.1123,4.1121,4.112,0,0,4.0882,4.0924,4.0952,4.0978,4.1018,4.1077,4.1168,4.1232,4.1274,4.1318,4.1394,4.1494,4.1449,4.1485,4.1469,4.1536,4.1688,4.1479,4.148,4.1517,4.1861,4.1897,4.1926,4.1663,4.1667,4.1671,4.1857,0,4.1063,4.1218,4.1199,4.1349,4.1419,4.1366,4.1446,4.148,4.1485,4.1547,4.1554,4.1625,4.156,4.1582,4.1646,4.1656,4.1757,4.1642,4.1734,4.1738,4.1724,4.1958,4.1997,4.2171,4.1881,4.1885,4.1888,0,4.1294,4.1344,4.15,4.153,4.1559,4.163,4.1688,4.1747,4.1786,4.1785,4.1826,4.1798,4.189,4.1805,4.1933,4.1856,4.1893,4.1904,4.191,4.1917,4.1822,4.1972,4.2226,4.2252,4.1926,4.1923,4.192,0,4.1457,4.1564,4.1671,4.1694,4.1731,4.1783,4.1801,4.1834,4.1875,4.1926,4.1952,4.2015,4.2049,4.2099,4.2089,4.2028,4.222,4.2134,4.2223,4.2223,4.2265,4.2262,4.2528,4.229,4.229,4.2289,4.2289,0,4.1661,4.1758,4.1744,4.181,4.1918,4.1896,4.2005,4.2017,4.2047,4.2115,4.2075,4.214,4.2123,4.2189,4.2182,4.229,4.2306,4.2309,4.2306,4.2312,4.2312,4.2335,4.2323,4.2296,4.2294,4.2293,4.2292,0,4.186,4.1855,4.1968,4.1994,4.2003,4.2081,4.2104,4.2167,4.2169,4.2257,4.2276,4.228,4.2355,4.235,4.2436,4.2431,4.2563,4.2547,4.255,4.2546,4.2635,4.2627,4.2925,4.2964,4.2701,4.2703,4.2705,0,4.199,4.2064,4.2097,4.2139,4.2161,4.2229,4.227,4.2252,4.2296,4.2346,4.2403,4.2474,4.253,4.2652,4.2664,4.2729,4.2713,4.2814,4.2723,4.2727,4.2715,4.271,4.2718,4.2831,4.2834,4.2837,4.2839,0,4.2222,4.2215,4.2274,4.2333,4.2382,4.2428,4.2469,4.2507,4.2493,4.2545,4.262,4.2664,4.275,4.2821,4.2884,4.2904,4.287,4.2867,4.2891,4.2898,4.2897,4.2898,4.2598,4.286,4.2858,4.2856,4.2855,4.2854,4.2391,4.2453,4.2487,4.2554,4.2583,4.2623,4.2683,4.2692,4.2754,4.2822,4.2808,4.2893,4.2931,4.3011,4.3037,4.3105,4.3069,4.3104,4.3112,4.3121,4.3131,4.2887,4.3116,4.3115,4.3115,4.3114,4.3114,0,4.262,4.2638,4.27,4.2759,4.2812,4.2774,4.2818,4.2866,4.294,4.2978,4.3033,4.312,4.3189,4.3207,4.3273,4.3324,4.331,4.3342,4.3338,4.3343,4.3159,4.3132,4.3352,4.3352,4.3352,4.3352,4.3352,4.3352,4.2745,4.2849,4.2847,4.2966,4.2984,4.3066,4.3094,4.3132,4.3161,4.3259,4.3316,4.3326,4.3356,4.3425,4.3487,4.349,4.3517,4.3555,4.3553,4.338,4.3356,4.3334,4.3307,4.3561,4.3562,4.3731,4.3732,4.3734]},{"header":{"parameterUnit":"m.s-1","parameterCategory":1,"la1":30.2991,"la2":30.254,"lo1":-89.0895,"lo2":-89.0444,"dx":0.0017,"dy":0.0017,"nx":28,"ny":28,"refTime":"2023-01-22T03:00:00:Z","depth":0,"parameterNumber":3,"parameterNumberName":"V-component_of_WINDS"},"data":[0,0,0,0,0,0,0,0,0,0,0,0,0,0,0,0,0,0,0,0,0,0,0,0,0,0,0,0,0,0,0,0,0,0,0,0,0,0,0,0,0,0,0,0,0,0,0,0,0,0,0,0,0,0,0,0,0,0,-1.5503,-1.5504,0,-1.5623,-1.5625,-1.5626,-1.5657,-1.5656,-1.5655,-1.5655,-1.5785,-1.5789,-1.5793,0,0,0,0,0,0,0,0,0,0,0,0,0,-1.5309,-1.5313,-1.5503,-1.5504,-1.5506,-1.5623,-1.5625,-1.5626,-1.5657,-1.5656,-1.5655,-1.5654,-1.5783,-1.5788,-1.5793,0,0,0,0,0,0,0,0,0,0,0,0,0,-1.5408,-1.5314,-1.5503,-1.5535,-1.5539,-1.5623,-1.5625,-1.5627,-1.5657,-1.5656,-1.5655,-1.5654,-1.5782,-1.5788,-1.5794,-1.5855,0,0,-1.5813,-1.5816,0,0,0,0,0,0,0,0,-1.5402,-1.5415,-1.5529,-1.5533,-1.5538,-1.5624,-1.5604,-1.5704,-1.5658,-1.5613,-1.5655,-1.5653,-1.5732,-1.5743,-1.5768,-1.5861,-1.5867,-1.5814,-1.5817,-1.582,-1.5822,0,0,0,0,0,0,0,-1.5395,-1.541,-1.5551,-1.5531,-1.5536,-1.5547,-1.556,-1.5623,-1.5678,-1.5617,-1.5619,-1.5633,-1.5735,-1.5762,-1.5771,-1.5869,-1.5813,-1.5819,-1.5823,-1.5825,-1.6023,-1.6024,0,0,0,0,0,0,-1.5382,-1.5404,-1.5547,-1.5554,-1.5466,-1.5551,-1.5565,-1.5598,-1.5677,-1.5688,-1.5633,-1.5634,-1.5752,-1.5764,-1.5776,-1.5855,-1.582,-1.5826,-1.5829,-1.6021,-1.6023,-1.6025,0,0,0,0,0,0,-1.5377,-1.5394,-1.5542,-1.548,-1.55,-1.5556,-1.5592,-1.56,-1.5627,-1.569,-1.57,-1.565,-1.5751,-1.5767,-1.5836,-1.586,-1.5829,-1.5834,-1.6019,-1.6022,-1.6024,-1.6013,0,0,0,0,0,0,-1.5372,-1.5392,-1.5414,-1.548,-1.5503,-1.5597,-1.5593,-1.5604,-1.5637,-1.5639,-1.5708,-1.5719,-1.5752,-1.5826,-1.5842,-1.5868,-1.5839,-1.6018,-1.602,-1.6023,-1.6011,-1.6014,-1.6017,0,0,0,0,0,-1.5365,-1.5407,-1.5415,-1.5432,-1.553,-1.5598,-1.5612,-1.5646,-1.5639,-1.5663,-1.5704,-1.5717,-1.5855,-1.5833,-1.5851,-1.5879,-1.6016,-1.602,-1.6023,-1.601,-1.6014,-1.6017,0,0,0,0,0,0,-1.5344,-1.5416,-1.5426,-1.549,-1.5538,-1.5603,-1.5634,-1.5649,-1.5701,-1.57,-1.5743,-1.5759,-1.5825,-1.5859,-1.5834,-1.5945,-1.5936,-1.5943,-1.592,-1.5924,-1.5927,-1.5918,-1.5844,0,0,0,0,0,-1.5347,-1.5393,-1.5455,-1.5506,-1.5529,-1.5577,-1.5608,-1.5631,-1.5683,-1.5704,-1.5749,-1.5801,-1.5857,-1.5892,-1.5946,-1.6016,-1.6034,-1.6045,-1.6048,-1.605,-1.6056,-1.6099,-1.6106,-1.6036,-1.6036,-1.6036,0,0,-1.5353,-1.5398,-1.5425,-1.5503,-1.5542,-1.5592,-1.5594,-1.5646,-1.5685,-1.5712,-1.578,-1.5815,-1.5877,-1.5946,-1.598,-1.5977,-1.608,-1.6055,-1.6056,-1.6061,-1.6103,-1.611,-1.6116,-1.6038,-1.6038,-1.6037,0,0,-1.5391,-1.5428,-1.5476,-1.5516,-1.5575,-1.5607,-1.5619,-1.5683,-1.5707,-1.5775,-1.5797,-1.5845,-1.5939,-1.5982,-1.6017,-1.6074,-1.6089,-1.6091,-1.6106,-1.6147,-1.6153,-1.6158,-1.6181,-1.6188,-1.6096,-1.6096,-1.6096,0,-1.5392,-1.5465,-1.5499,-1.5551,-1.5586,-1.5611,-1.5662,-1.57,-1.5775,-1.58,-1.5795,-1.5915,-1.5958,-1.604,-1.6054,-1.608,-1.6097,-1.6083,-1.6149,-1.6154,-1.616,-1.6182,-1.619,-1.6096,-1.6096,-1.6096,-1.6096,0,-1.5466,-1.5517,-1.5549,-1.5618,-1.5657,-1.5708,-1.5752,-1.5788,-1.5808,-1.5842,-1.5913,-1.5966,-1.6032,-1.6053,-1.6074,-1.6139,-1.6136,-1.6139,-1.6132,-1.6166,-1.6187,-1.6196,-1.6096,-1.6096,-1.6096,-1.6096,0,0,-1.5493,-1.5581,-1.5593,-1.5626,-1.5694,-1.5736,-1.579,-1.5853,-1.5884,-1.5936,-1.5984,-1.6064,-1.6068,-1.6107,-1.6133,-1.6169,-1.6214,-1.6169,-1.6171,-1.6177,-1.6293,-1.6291,-1.63,-1.6224,-1.6226,-1.6227,-1.6289,0,-1.554,-1.5634,-1.5667,-1.5746,-1.5795,-1.5822,-1.5869,-1.5918,-1.5952,-1.6001,-1.604,-1.6096,-1.6096,-1.6121,-1.6157,-1.62,-1.6238,-1.6196,-1.6273,-1.6275,-1.6257,-1.6311,-1.6308,-1.6363,-1.6297,-1.6299,-1.63,0,-1.5607,-1.5658,-1.5741,-1.5806,-1.5828,-1.5869,-1.5932,-1.5977,-1.6035,-1.6057,-1.6102,-1.6126,-1.6187,-1.6175,-1.6261,-1.6232,-1.6266,-1.6292,-1.6295,-1.6305,-1.629,-1.6324,-1.6382,-1.639,-1.6313,-1.6312,-1.6311,0,-1.5621,-1.5711,-1.5773,-1.58,-1.5876,-1.5905,-1.5939,-1.5995,-1.6032,-1.6087,-1.6113,-1.6175,-1.621,-1.6259,-1.6301,-1.6288,-1.6385,-1.6375,-1.6408,-1.6407,-1.6428,-1.6426,-1.6493,-1.6447,-1.6447,-1.6446,-1.6446,0,-1.5672,-1.5722,-1.578,-1.5818,-1.5877,-1.5916,-1.5974,-1.601,-1.606,-1.6109,-1.6136,-1.6181,-1.6233,-1.6286,-1.6319,-1.6388,-1.6403,-1.6425,-1.6434,-1.6423,-1.6421,-1.6447,-1.6445,-1.6449,-1.6448,-1.6448,-1.6447,0,-1.5697,-1.5737,-1.5807,-1.5873,-1.5892,-1.5932,-1.5991,-1.6031,-1.6066,-1.6127,-1.6144,-1.6201,-1.6265,-1.6311,-1.6394,-1.6417,-1.6491,-1.6499,-1.6471,-1.6475,-1.6506,-1.6503,-1.6594,-1.6609,-1.655,-1.6551,-1.6551,0,-1.5727,-1.5766,-1.5836,-1.587,-1.5903,-1.5956,-1.5993,-1.6035,-1.6073,-1.6143,-1.6176,-1.6241,-1.6296,-1.6398,-1.6449,-1.6514,-1.6524,-1.6552,-1.6534,-1.6524,-1.6528,-1.6525,-1.6531,-1.6555,-1.6555,-1.6555,-1.6556,0,-1.5776,-1.5795,-1.5846,-1.5906,-1.5949,-1.5999,-1.6049,-1.6075,-1.6127,-1.6169,-1.6234,-1.6276,-1.6361,-1.6428,-1.6498,-1.6536,-1.6556,-1.656,-1.6572,-1.6563,-1.6546,-1.6557,-1.648,-1.6558,-1.6558,-1.6558,-1.6558,-1.6558,-1.5807,-1.5844,-1.5899,-1.5957,-1.5998,-1.6045,-1.6086,-1.6127,-1.6181,-1.6252,-1.6274,-1.6342,-1.6402,-1.6498,-1.6537,-1.6594,-1.6593,-1.6609,-1.6613,-1.6617,-1.6617,-1.6535,-1.6607,-1.6607,-1.6607,-1.6607,-1.6607,0,-1.5859,-1.5896,-1.5949,-1.6017,-1.6064,-1.6075,-1.6132,-1.6171,-1.623,-1.6283,-1.6336,-1.6413,-1.6478,-1.6533,-1.6602,-1.6636,-1.6648,-1.6653,-1.6652,-1.6661,-1.6613,-1.6597,-1.6643,-1.6643,-1.6643,-1.6643,-1.6643,-1.6643,-1.5892,-1.5956,-1.5982,-1.6068,-1.6106,-1.6171,-1.6203,-1.6248,-1.629,-1.6374,-1.6427,-1.6462,-1.6518,-1.6591,-1.6652,-1.6667,-1.6692,-1.6696,-1.6714,-1.6668,-1.6664,-1.666,-1.6646,-1.6701,-1.6701,-1.6758,-1.6758,-1.6759]}]]